Terug naar catalogus

FENGYUN 1C DEB

ActiefPO
NORAD 31808·DEBRIS·🇨🇳 China

Gelanceerd May 10, 1999 vanaf Taiyuan Satellite Launch Center

Loading…

Volgende Passages (komende 24 uur)

TLE

VersSource: Space-Track

Epoch: Sep 14, 2026, 10:06 UTC

1 31808U 99025CGW 26257.42112943  .00012406  00000-0  21290-2 0  9992
2 31808  99.1969 121.1670 0036765  19.9566 340.3064 14.68428009616359

Volg FENGYUN 1C DEB in realtime met AllMySat

Download on the App Store